Flag for Canada Weather past 2 weeks in Montreal, Quebec, Canada

Now
59 °F

Partly sunny.


Feels Like: 57 °F
Forecast: 51 / 64 °F
Wind: 13 mph from North

Location: Montreal - Pierre Elliot Trudeau International Aiport

Current Time: Sep 30, 2014 at 2:37:08 PM

Latest Report: Sep 30, 2014 at 2:00 PM


Visibility: 15 mi

Pressure: 29.99 "Hg

Humidity: 77%

Dew point: 52 °F

Location of MontrealLocation

Historic Weather in Montreal — Graph

°F

Montreal temperature yesterday

Maximum temperature yesterday: 64 °F (at 12:00 AM)
Minimum temperature yesterday: 48 °F (at 8:00 PM)
Average temperature yesterday: 57 °F

Past Weeks' High & Low Weather Summary

 TemperatureHumidityPressure
High77 °F (Sep 26, 3:00 PM)100% (Sep 24, 7:00 AM)30.59 "Hg (Sep 24, 7:00 AM)
Low36 °F (Sep 19, 4:00 AM)32% (Sep 19, 2:00 PM)29.47 "Hg (Sep 22, 12:00 AM)
Average58 °F74%30.08 "Hg
* Reported Sep 15 1:00 PM — Sep 30 1:00 PM, Montreal, Weather by CustomWeather, © 2014

Note: Actual official high and low records may vary slightly from our data, if they occured in-between our weather recording intervals... More about our weather records

Advertising

Montreal weather history for previous 24 hours

 ConditionsComfort  
Time TempWeatherWind HumidityBarometerVisibility
1:00 PM
Sep 30
59 °FPartly sunny.10 mph77%30.01 "Hg12 mi
11:00 AM54 °FOvercast.12 mph82%30.02 "Hg8 mi
10:00 AM54 °FOvercast.10 mph82%30.02 "Hg10 mi
9:00 AM52 °FOvercast.10 mph88%30.02 "Hg8 mi
8:00 AM50 °FLow clouds.10 mph88%30.01 "Hg8 mi
7:00 AM50 °FLow clouds.8 mph88%30.00 "Hg8 mi
6:00 AM50 °FLow clouds.9 mph88%29.99 "Hg15 mi
5:00 AM50 °FLow clouds.9 mph88%29.99 "Hg15 mi
4:00 AM48 °FLow clouds.7 mph94%29.99 "Hg15 mi
3:00 AM50 °FLow clouds.9 mph88%29.98 "Hg15 mi
2:00 AM50 °FLow clouds.10 mph88%29.99 "Hg15 mi
1:00 AM48 °FLow clouds.8 mph87%29.98 "Hg15 mi
12:00 AM48 °FLow clouds.12 mph87%29.98 "Hg15 mi
11:00 PM
Sep 29
48 °FLow clouds.15 mph87%29.99 "Hg15 mi
10:45 PM48 °FLow clouds.14 mph87%29.99 "Hg15 mi
10:00 PM48 °FOvercast.16 mph87%29.99 "Hg15 mi
9:00 PM48 °FPassing clouds.16 mph87%30.00 "Hg15 mi
8:00 PM48 °FPartly cloudy.18 mph82%29.99 "Hg15 mi
7:00 PM50 °FPassing clouds.16 mph82%29.98 "Hg15 mi
6:00 PM52 °FScattered clouds.18 mph77%29.98 "Hg15 mi
5:00 PM55 °FPartly sunny.18 mph72%29.98 "Hg15 mi
4:00 PM57 °FPartly sunny.17 mph72%29.97 "Hg15 mi
3:00 PM57 °FMostly cloudy.16 mph72%29.98 "Hg15 mi
2:00 PM59 °FMostly cloudy.16 mph72%29.98 "Hg15 mi
Weather by CustomWeather, © 2014

See weather overviewHow to use our weather pages